Flag for Norway Weather past 2 weeks in Horten, Norway

Now
41 °F

Passing clouds.


Feels Like: 29 °F
Forecast: 32 / 38 °F
Wind: 38 mph from Northwest

Location: Oseberg

Current Time: Dec 20, 2014 at 2:02:21 AM

Latest Report: Dec 20, 2014 at 12:50 AM


Visibility: N/A

Pressure: 29.12 "Hg

Humidity: 76%

Dew point: 34 °F

Location of HortenLocation

Historic Weather in Horten — Graph

°F

Horten temperature yesterday

Maximum temperature yesterday: 43 °F (at 1:50 AM)
Minimum temperature yesterday: 37 °F (at 7:50 AM)
Average temperature yesterday: 41 °F

Past Weeks' High & Low Weather Summary

 TemperatureHumidityPressure
High48 °F (Dec 6, 8:50 PM)100% (Dec 6, 3:50 PM)30.01 "Hg (Dec 6, 3:50 PM)
Low32 °F (Dec 15, 3:50 PM)36% (Dec 15, 12:50 PM)28.68 "Hg (Dec 11, 4:50 AM)
Average42 °F75%29.24 "Hg
* Reported Dec 5 12:50 AM — Dec 20 12:50 AM, Horten, Weather by CustomWeather, © 2014

Note: Actual official high and low records may vary slightly from our data, if they occured in-between our weather recording intervals... More about our weather records

Advertising

Horten weather history for previous 24 hours

 ConditionsComfort  
Time TempWeatherWind HumidityBarometerVisibility
12:50 AM
Dec 20
41 °FPassing clouds.38 mph76%29.12 "HgN/A
11:50 PM
Dec 19
41 °FPassing clouds.37 mph70%29.09 "HgN/A
9:50 PM43 °FThunderstorms. Passing clouds.37 mph61%29.09 "HgN/A
8:50 PM43 °FPassing clouds.32 mph61%29.09 "HgN/A
7:50 PM43 °FPartly cloudy.31 mph66%29.09 "HgN/A
6:50 PM43 °FPassing clouds.38 mph66%29.06 "HgN/A
6:20 PM41 °FPassing clouds.40 mph76%29.03 "HgN/A
5:50 PM43 °FScattered showers. Partly cloudy.48 mph71%29.00 "HgN/A
5:20 PM43 °FScattered showers. Partly cloudy.48 mph71%28.97 "HgN/A
4:50 PM43 °FScattered showers. Passing clouds.47 mph66%28.97 "HgN/A
4:20 PM41 °FScattered showers. Partly cloudy.40 mph76%29.00 "HgN/A
3:50 PM43 °FScattered showers. Partly cloudy.40 mph57%28.97 "HgN/A
3:20 PM41 °FScattered showers. Passing clouds.29 mph70%29.00 "HgN/A
2:50 PM41 °FSprinkles. Broken clouds.24 mph76%29.03 "HgN/A
2:20 PM41 °FScattered showers. Broken clouds.44 mph81%29.00 "HgN/A
1:50 PM43 °FScattered showers. Broken clouds.29 mph76%29.00 "HgN/A
1:20 PM43 °FScattered showers. Broken clouds.32 mph71%29.00 "HgN/A
12:50 PM43 °FRain showers. Scattered clouds.30 mph71%28.97 "HgN/A
12:20 PM41 °FScattered showers. Scattered clouds.29 mph76%29.00 "HgN/A
11:50 AM41 °FScattered showers. Scattered clouds.32 mph70%28.97 "HgN/A
11:20 AM41 °FScattered showers. Scattered clouds.28 mph70%28.97 "HgN/A
10:50 AM41 °FScattered showers. Broken clouds.35 mph76%28.97 "HgN/A
10:20 AM39 °FSprinkles. Scattered clouds.31 mph81%28.97 "HgN/A
9:50 AM37 °FScattered showers. Broken clouds.39 mph75%28.94 "HgN/A
9:20 AM41 °FBroken clouds.32 mph70%28.97 "HgN/A
8:50 AM41 °FPassing clouds.36 mph70%28.94 "HgN/A
8:20 AM39 °FPartly cloudy.28 mph81%28.97 "HgN/A
7:50 AM37 °FSprinkles. Partly cloudy.29 mph81%28.97 "HgN/A
7:20 AM41 °FPassing clouds.43 mph70%28.94 "HgN/A
6:50 AM41 °FPartly cloudy.39 mph76%28.97 "HgN/A
6:20 AM41 °FPassing clouds.39 mph76%28.97 "HgN/A
5:50 AM41 °FPassing clouds.37 mph76%28.97 "HgN/A
4:50 AM41 °FPartly cloudy.35 mph76%29.00 "HgN/A
3:50 AM43 °FPartly cloudy.33 mph66%29.00 "HgN/A
Weather by CustomWeather, © 2014

See weather overviewHow to use our weather pages